TIANHUI 2-02A (49071 NORAD) Tracking and Keplerian Element Data

This shows tracking and keplerian element data for the satellite.

Feedback or suggestion? Click here.




ElementValue
Catalog49071
NameTIANHUI 2-02A
Epoch Orbit869
Epoch Day288.23422843
Epoch Year2021
RAAN291.3145
Inclination97.4537
Eccentricity0.00017
Argument of Perigee99.4721
Mean Anonmoly316.8045
Mean Motion15.1675866
Decay Rate-3.11E-06
L11 49071U 21074A 21288.23422843 -.00000311 00000-0 -12540-4 0 9997
L22 49071 97.4537 291.3145 0001700 99.4721 316.8045 15.16758660 8698

Live tracking and technical data element details for TIANHUI 2-02A (NORAD 49071). TIANHUI 2-02A can be tracked NOW for your location showing map with azimuth and elevation plus other details from your city location.

Track the satellite on the map from your city or location and see movement details for azimuth, elevation, latitude, longitude, range, height, and movement on the map or in text.







IsCatalogInMostPopularTable: catalog: 49071, numindb: 7
Update: records affected: 1



GetName: 49071 TIANHUI 2-02A

Hit Count: updated at: Sun, 17 Oct 2021 10:22:52 GMT